Location: Castro Valley
(37.6941°N, 122.0863°W)
Time: 18:03:54
(UTC+00:00)

Cosmos 1300 - Pass Details

Date: 03 August 2024
Orbit: 456 x 457 km, 82.5° (Epoch: 06 September)

Event Time Altitude Azimuth Distance (km) Brightness Sun altitude
Exits shadow 12:26:00 10° 211° (SSW) 1,643 4.7 -9.4°
Reaches altitude 10° 12:26:03 10° 211° (SSW) 1,625 4.7 -9.4°
Maximum altitude 12:29:23 38° 280° (W) 738 3.1 -8.8°
Drops below altitude 10° 12:32:45 10° 350° (N) 1,638 5.5 -8.2°
Sets 12:34:57 0° 359° (N) 2,519 6.6 -7.8°
